[[{"header":{"parameterUnit":"m.s-1","parameterCategory":1,"la1":30.2991,"la2":30.254,"lo1":-89.0895,"lo2":-89.0444,"dy":0.0017,"dx":0.0017,"nx":28,"ny":28,"refTime":"2024-05-06T09:00:00:Z","depth":0,"parameterNumber":2,"parameterNumberName":"U-component_of_WINDS"},"data":[0,0,0,0,0,0,0,0,0,0,0,0,0,0,0,0,0,0,0,0,0,0,0,0,0,0,0,0,0,0,0,0,0,0,0,0,0,0,0,0,0,0,0,0,0,0,0,0,0,0,0,0,0,0,0,0,0,0,0.1319,0.1319,0,0.1337,0.1337,0.1337,0.1319,0.1318,0.1317,0.1316,0.1335,0.1337,0.1338,0,0,0,0,0,0,0,0,0,0,0,0,0,0.1269,0.127,0.1319,0.1319,0.132,0.1337,0.1337,0.1337,0.1319,0.1318,0.1317,0.1316,0.1335,0.1336,0.1338,0,0,0,0,0,0,0,0,0,0,0,0,0,0.1289,0.127,0.1319,0.1312,0.1312,0.1337,0.1337,0.1337,0.1319,0.1318,0.1317,0.1316,0.1335,0.1336,0.1338,0.1371,0,0,0.1343,0.1344,0,0,0,0,0,0,0,0,0.1288,0.1291,0.1313,0.1313,0.1312,0.1324,0.1326,0.1348,0.1319,0.1316,0.1316,0.1315,0.1333,0.1335,0.134,0.1371,0.1372,0.1344,0.1345,0.1345,0.1346,0,0,0,0,0,0,0,0.1287,0.129,0.1326,0.1313,0.1313,0.1308,0.131,0.133,0.133,0.1316,0.1315,0.1317,0.1332,0.1339,0.1341,0.1373,0.1344,0.1345,0.1346,0.1347,0.143,0.1431,0,0,0,0,0,0,0.1286,0.1289,0.1326,0.1327,0.1297,0.131,0.1312,0.1322,0.133,0.133,0.1318,0.1316,0.1336,0.1339,0.1341,0.1379,0.1345,0.1347,0.1348,0.1428,0.143,0.1431,0,0,0,0,0,0,0.1285,0.1289,0.1325,0.1307,0.1312,0.1312,0.1323,0.1323,0.1329,0.1331,0.1331,0.1325,0.1335,0.1339,0.1363,0.1379,0.1348,0.1349,0.1427,0.1429,0.143,0.1455,0,0,0,0,0,0,0.1284,0.1289,0.1302,0.1308,0.1313,0.1347,0.1324,0.1324,0.1332,0.133,0.1338,0.1338,0.1335,0.136,0.1365,0.1381,0.1351,0.1426,0.1428,0.143,0.1453,0.1457,0.1461,0,0,0,0,0,0.1282,0.1308,0.1302,0.1307,0.1328,0.1348,0.135,0.1346,0.1333,0.1346,0.1347,0.1338,0.1377,0.1363,0.1368,0.1385,0.1425,0.1427,0.143,0.1451,0.1456,0.1461,0,0,0,0,0,0,0.1305,0.1309,0.1303,0.1332,0.1339,0.1344,0.136,0.1352,0.1364,0.1361,0.1356,0.1357,0.1383,0.1386,0.1371,0.1416,0.1399,0.1402,0.1413,0.1418,0.1422,0.1421,0.1352,0,0,0,0,0,0.1313,0.1328,0.1331,0.1357,0.1361,0.136,0.1368,0.1364,0.1372,0.1375,0.1378,0.1386,0.14,0.1409,0.1422,0.1453,0.1454,0.1467,0.1471,0.1475,0.1478,0.1493,0.1499,0.1439,0.1439,0.1439,0,0,0.1331,0.1335,0.1345,0.1362,0.1367,0.1382,0.1363,0.138,0.1392,0.1378,0.14,0.1403,0.1411,0.1439,0.1451,0.1442,0.1494,0.1478,0.1481,0.1482,0.1496,0.1502,0.1507,0.1441,0.1441,0.1441,0,0,0.1371,0.1376,0.1397,0.1403,0.1411,0.1409,0.1414,0.142,0.1421,0.1444,0.1433,0.1446,0.1471,0.1477,0.1483,0.1524,0.1515,0.1528,0.155,0.1565,0.157,0.1574,0.1588,0.1593,0.1531,0.1531,0.1531,0,0.1392,0.1415,0.1409,0.1427,0.1434,0.1421,0.1442,0.1448,0.146,0.1465,0.1455,0.1484,0.1489,0.1517,0.1527,0.1533,0.1538,0.1527,0.157,0.1574,0.1577,0.159,0.1596,0.1533,0.1533,0.1532,0.1532,0,0.144,0.1456,0.1472,0.1483,0.1492,0.1512,0.1509,0.1518,0.1513,0.1513,0.1535,0.154,0.1554,0.156,0.1555,0.1587,0.1581,0.1571,0.1553,0.1585,0.1597,0.1602,0.1535,0.1534,0.1534,0.1533,0,0,0.1496,0.1503,0.1509,0.1513,0.152,0.1532,0.1551,0.1563,0.1571,0.1579,0.1594,0.1614,0.1604,0.1611,0.1607,0.162,0.1651,0.1608,0.1608,0.1615,0.1685,0.1692,0.1698,0.1645,0.1646,0.1647,0.1684,0,0.1536,0.1568,0.1562,0.1593,0.1607,0.1594,0.161,0.1616,0.1616,0.1628,0.1628,0.1642,0.1628,0.1632,0.1644,0.1645,0.1665,0.1642,0.1659,0.1659,0.1657,0.1705,0.1713,0.1748,0.1689,0.1689,0.169,0,0.1587,0.1596,0.1628,0.1631,0.1637,0.1652,0.1662,0.1673,0.1679,0.1678,0.1685,0.1678,0.1696,0.1678,0.1702,0.1687,0.1693,0.1694,0.1695,0.1697,0.1677,0.1707,0.1759,0.1765,0.1698,0.1697,0.1696,0,0.1623,0.1644,0.1665,0.1669,0.1674,0.1685,0.1687,0.1692,0.1699,0.1708,0.1713,0.1724,0.173,0.1738,0.1734,0.1721,0.1759,0.174,0.1758,0.1758,0.1767,0.1766,0.182,0.1771,0.1771,0.1771,0.1771,0,0.1668,0.1688,0.1682,0.1695,0.1716,0.171,0.1731,0.1732,0.1736,0.1749,0.1739,0.1751,0.1745,0.1757,0.1754,0.1773,0.1776,0.1776,0.1775,0.1777,0.1777,0.1781,0.1778,0.1772,0.1772,0.1772,0.1772,0,0.1713,0.171,0.1732,0.1734,0.1735,0.1751,0.1753,0.1765,0.1763,0.178,0.1783,0.1781,0.1794,0.1791,0.1805,0.1803,0.1828,0.1824,0.1826,0.1825,0.1842,0.184,0.1901,0.1908,0.1855,0.1855,0.1856,0,0.1741,0.1756,0.176,0.1767,0.177,0.1783,0.179,0.1784,0.1791,0.1799,0.181,0.1822,0.1831,0.1852,0.1852,0.1863,0.1859,0.1879,0.186,0.1861,0.1858,0.1857,0.1858,0.1883,0.1883,0.1884,0.1884,0,0.1792,0.1789,0.18,0.181,0.1818,0.1825,0.1832,0.1839,0.1833,0.1842,0.1855,0.1862,0.1876,0.1888,0.1897,0.1899,0.1891,0.189,0.1895,0.1897,0.1897,0.1896,0.1836,0.1889,0.1888,0.1888,0.1888,0.1888,0.1829,0.1841,0.1845,0.1857,0.1861,0.1867,0.1878,0.1877,0.1888,0.1899,0.1894,0.1909,0.1913,0.1925,0.1928,0.194,0.1932,0.1939,0.194,0.1942,0.1944,0.1895,0.1941,0.1941,0.1941,0.1941,0.1941,0,0.1879,0.188,0.1891,0.19,0.1909,0.1899,0.1906,0.1914,0.1927,0.1931,0.194,0.1955,0.1966,0.1966,0.1976,0.1985,0.1981,0.1988,0.1987,0.1987,0.1951,0.1945,0.1991,0.1991,0.1991,0.1991,0.1991,0.1991,0.1906,0.1925,0.1923,0.1944,0.1945,0.1959,0.1963,0.1969,0.1972,0.1989,0.1997,0.1997,0.2,0.201,0.202,0.2019,0.2023,0.2031,0.203,0.1995,0.199,0.1985,0.1981,0.2032,0.2033,0.2066,0.2066,0.2066]},{"header":{"parameterUnit":"m.s-1","parameterCategory":1,"la1":30.2991,"la2":30.254,"lo1":-89.0895,"lo2":-89.0444,"dy":0.0017,"dx":0.0017,"nx":28,"ny":28,"refTime":"2024-05-06T09:00:00:Z","depth":0,"parameterNumber":3,"parameterNumberName":"V-component_of_WINDS"},"data":[0,0,0,0,0,0,0,0,0,0,0,0,0,0,0,0,0,0,0,0,0,0,0,0,0,0,0,0,0,0,0,0,0,0,0,0,0,0,0,0,0,0,0,0,0,0,0,0,0,0,0,0,0,0,0,0,0,0,6.3775,6.3775,0,6.3803,6.3803,6.3804,6.3728,6.3726,6.3724,6.3721,6.3747,6.3749,6.3752,0,0,0,0,0,0,0,0,0,0,0,0,0,6.3651,6.3653,6.3775,6.3775,6.3775,6.3803,6.3803,6.3804,6.3729,6.3726,6.3723,6.372,6.3746,6.3749,6.3753,0,0,0,0,0,0,0,0,0,0,0,0,0,6.3694,6.3654,6.3775,6.3741,6.3739,6.3803,6.3803,6.3804,6.3729,6.3726,6.3722,6.3719,6.3745,6.3749,6.3753,6.385,0,0,6.3766,6.3768,0,0,0,0,0,0,0,0,6.3692,6.3699,6.3746,6.3744,6.3741,6.3759,6.3769,6.3819,6.373,6.3733,6.3721,6.3717,6.3753,6.3757,6.3769,6.3851,6.3852,6.3766,6.3769,6.3771,6.3772,0,0,0,0,0,0,0,6.3689,6.3697,6.3786,6.3747,6.3744,6.3723,6.3726,6.3778,6.3762,6.3732,6.3727,6.3731,6.3751,6.3766,6.3769,6.3852,6.3766,6.377,6.3773,6.3774,6.4012,6.4016,0,0,0,0,0,0,6.3691,6.3695,6.3785,6.3786,6.3707,6.3729,6.3731,6.3756,6.3761,6.3759,6.3734,6.3728,6.376,6.3765,6.377,6.3882,6.3771,6.3775,6.3777,6.4009,6.4013,6.4017,0,0,0,0,0,0,6.3688,6.37,6.3784,6.3739,6.3749,6.3734,6.3763,6.3759,6.3773,6.3763,6.3759,6.3752,6.3757,6.3764,6.383,6.3882,6.3777,6.3781,6.4004,6.401,6.4015,6.4109,0,0,0,0,0,0,6.3685,6.3699,6.3737,6.3741,6.3751,6.3845,6.3767,6.3762,6.3781,6.3773,6.3779,6.3777,6.3755,6.3824,6.3835,6.3886,6.3784,6.4,6.4007,6.4014,6.4101,6.4117,6.413,0,0,0,0,0,6.3681,6.3761,6.3739,6.375,6.3798,6.3848,6.3854,6.3829,6.3786,6.3823,6.3816,6.3776,6.3875,6.3832,6.3843,6.3896,6.3996,6.4005,6.4013,6.4094,6.4114,6.413,0,0,0,0,0,0,6.3762,6.3761,6.3737,6.3821,6.3836,6.3835,6.3881,6.385,6.3876,6.3867,6.3833,6.3835,6.3908,6.3908,6.386,6.3989,6.3928,6.3939,6.3986,6.4005,6.4019,6.4017,6.3788,0,0,0,0,0,6.3791,6.3833,6.3829,6.3903,6.3912,6.3896,6.3916,6.3896,6.3909,6.3914,6.3912,6.3925,6.3959,6.3982,6.4012,6.4101,6.41,6.4143,6.4158,6.417,6.418,6.4225,6.4244,6.4045,6.4045,6.4045,0,0,6.3848,6.3853,6.3881,6.392,6.3929,6.3971,6.3901,6.3949,6.398,6.3921,6.3983,6.3983,6.3995,6.4072,6.4106,6.4075,6.4235,6.4181,6.4191,6.4194,6.4236,6.4255,6.4271,6.4051,6.405,6.4049,0,0,6.3975,6.3984,6.4046,6.4057,6.4071,6.406,6.4075,6.408,6.4077,6.414,6.4096,6.4131,6.4191,6.4201,6.4214,6.4344,6.4308,6.4355,6.4432,6.4477,6.4493,6.4506,6.4552,6.4568,6.4365,6.4365,6.4365,0,6.4045,6.4109,6.4082,6.4134,6.4151,6.4101,6.4163,6.4174,6.4197,6.421,6.4175,6.4248,6.4253,6.4331,6.4363,6.4376,6.4391,6.4354,6.4493,6.4506,6.4518,6.4561,6.4579,6.4371,6.437,6.437,6.4369,0,6.4193,6.4238,6.4286,6.4311,6.4334,6.4391,6.4371,6.4398,6.4375,6.4367,6.443,6.4434,6.4465,6.4482,6.446,6.4557,6.4537,6.4499,6.4436,6.4543,6.4583,6.4599,6.4379,6.4377,6.4375,6.4374,0,0,6.4371,6.4381,6.4399,6.441,6.4422,6.4455,6.4509,6.4539,6.4562,6.458,6.4623,6.4674,6.4638,6.4653,6.4631,6.4671,6.4773,6.4627,6.4626,6.4653,6.4879,6.4907,6.4927,6.475,6.4753,6.4755,6.4877,0,6.4496,6.4589,6.4567,6.4658,6.4699,6.4651,6.4697,6.4709,6.4703,6.4735,6.4727,6.4764,6.4714,6.4723,6.476,6.4753,6.4818,6.4744,6.4788,6.479,6.4785,6.4948,6.4978,6.5094,6.4893,6.4895,6.4897,0,6.4653,6.4678,6.4775,6.4779,6.4795,6.4838,6.4863,6.4895,6.4907,6.4899,6.4916,6.4887,6.4938,6.4877,6.4946,6.4896,6.4913,6.4912,6.4916,6.4918,6.4849,6.4953,6.513,6.5147,6.4922,6.492,6.4918,0,6.4773,6.483,6.4895,6.4905,6.4913,6.4943,6.4948,6.4956,6.4976,6.4998,6.501,6.5038,6.5052,6.5074,6.5052,6.5009,6.5125,6.5061,6.5118,6.5119,6.5144,6.5142,6.5325,6.5157,6.5157,6.5156,6.5156,0,6.4913,6.4974,6.4948,6.4988,6.5054,6.5026,6.5092,6.509,6.5098,6.5136,6.5096,6.5132,6.5102,6.5134,6.5118,6.5177,6.5184,6.5179,6.5173,6.5182,6.5182,6.5191,6.5182,6.5161,6.516,6.5159,6.5158,0,6.5057,6.5043,6.511,6.5112,6.5114,6.5162,6.5163,6.5199,6.519,6.5238,6.5247,6.5233,6.5269,6.525,6.5287,6.5276,6.5353,6.5337,6.5349,6.5344,6.5402,6.5397,6.5596,6.562,6.5438,6.544,6.5441,0,6.5147,6.5193,6.52,6.5223,6.523,6.5267,6.5287,6.5262,6.5284,6.53,6.5334,6.5367,6.5392,6.5453,6.5445,6.5473,6.5457,6.5524,6.546,6.5467,6.5456,6.5453,6.5457,6.5537,6.5539,6.5541,6.5542,0,6.5308,6.5299,6.533,6.5359,6.5384,6.5405,6.5422,6.5443,6.5418,6.5444,6.5482,6.5501,6.554,6.5573,6.5597,6.5599,6.5567,6.5563,6.5577,6.5585,6.559,6.5587,6.5383,6.5558,6.5556,6.5555,6.5554,6.5554,6.5427,6.5465,6.5476,6.5511,6.5522,6.5539,6.5573,6.5568,6.5599,6.5629,6.5612,6.5656,6.5665,6.5694,6.5701,6.5734,6.5707,6.5728,6.5733,6.5739,6.5746,6.5586,6.5738,6.5738,6.5738,6.5737,6.5737,0,6.5585,6.559,6.5623,6.5649,6.5677,6.5645,6.5662,6.5687,6.5726,6.5738,6.5764,6.5806,6.5838,6.5833,6.5861,6.5888,6.5874,6.5896,6.5893,6.5894,6.5769,6.5753,6.5908,6.5908,6.5907,6.5907,6.5907,6.5907,6.5671,6.5733,6.5725,6.5791,6.5794,6.5837,6.585,6.5865,6.5874,6.5924,6.595,6.5947,6.5952,6.598,6.6008,6.6005,6.6017,6.6045,6.6037,6.592,6.5903,6.5887,6.5872,6.6048,6.6049,6.6159,6.616,6.6161]}]]